Hourly Weather Bolshie Tigany

Today, 4 August, Wednesday

Time Temperature Precipitation Wind Pressure Humidity
00:00 +21°C° 0 mm 2 mps 747 mmHg 79%
01:00 +21°C° 0 mm 2 mps 747 mmHg 80%
02:00 +20°C° 0 mm 2 mps 747 mmHg 81%
03:00 +20°C° 0 mm 2 mps 747 mmHg 82%
04:00 +21°C° 0 mm 2 mps 748 mmHg 79%
05:00 +22°C° 0 mm 1 mps 748 mmHg 75%
06:00 +23°C° 0 mm 1 mps 748 mmHg 72%
07:00 +24°C° 0 mm 1 mps 748 mmHg 68%
08:00 +26°C° 0 mm 1 mps 748 mmHg 63%
09:00 +27°C° 0 mm 1 mps 748 mmHg 58%
10:00 +28°C° 0 mm 2 mps 748 mmHg 56%
11:00 +29°C° 0 mm 3 mps 748 mmHg 54%
12:00 +29°C° 0 mm 3 mps 748 mmHg 51%
13:00 +29°C° 0 mm 4 mps 748 mmHg 52%
14:00 +29°C° 0 mm 5 mps 748 mmHg 52%
15:00 +29°C° 0 mm 5 mps 748 mmHg 52%
16:00 +27°C° 0.4 mm 5 mps 748 mmHg 61%
17:00 +26°C° 0.4 mm 5 mps 748 mmHg 69%
18:00 +23°C° 0.4 mm 4 mps 748 mmHg 77%
19:00 +22°C° 0 mm 4 mps 748 mmHg 81%
20:00 +21°C° 0 mm 4 mps 748 mmHg 85%
21:00 +19°C° 0 mm 4 mps 748 mmHg 89%
22:00 +19°C° 0 mm 3 mps 748 mmHg 90%
23:00 +18°C° 0 mm 3 mps 749 mmHg 92%

Tomorrow, 5 August, Thursday

Time Temperature Precipitation Wind Pressure Humidity
00:00 +17°C° 0 mm 3 mps 749 mmHg 93%
01:00 +17°C° 0 mm 3 mps 749 mmHg 92%
02:00 +17°C° 0 mm 3 mps 749 mmHg 92%
03:00 +16°C° 0 mm 2 mps 749 mmHg 92%
04:00 +17°C° 0 mm 2 mps 749 mmHg 88%
05:00 +18°C° 0 mm 2 mps 749 mmHg 84%
06:00 +19°C° 0 mm 2 mps 750 mmHg 80%
07:00 +20°C° 0 mm 2 mps 750 mmHg 70%
08:00 +22°C° 0 mm 3 mps 750 mmHg 61%
09:00 +25°C° 0 mm 3 mps 750 mmHg 52%
10:00 +26°C° 0 mm 3 mps 750 mmHg 48%
11:00 +27°C° 0 mm 4 mps 750 mmHg 43%
12:00 +27°C° 0 mm 4 mps 750 mmHg 39%
13:00 +26°C° 0 mm 4 mps 750 mmHg 43%
14:00 +25°C° 0 mm 4 mps 750 mmHg 47%
15:00 +23°C° 0 mm 4 mps 750 mmHg 52%
16:00 +23°C° 0 mm 4 mps 750 mmHg 50%
17:00 +23°C° 0 mm 5 mps 750 mmHg 48%
18:00 +22°C° 0 mm 5 mps 750 mmHg 46%
19:00 +22°C° 0 mm 4 mps 751 mmHg 50%
20:00 +21°C° 0 mm 4 mps 751 mmHg 53%
21:00 +20°C° 0 mm 3 mps 751 mmHg 57%
22:00 +19°C° 0 mm 3 mps 751 mmHg 61%
23:00 +18°C° 0 mm 3 mps 751 mmHg 65%

Day after tomorrow, 6 August, Friday

Time Temperature Precipitation Wind Pressure Humidity
00:00 +17°C° 0 mm 3 mps 751 mmHg 69%
01:00 +16°C° 0 mm 3 mps 751 mmHg 72%
02:00 +16°C° 0 mm 3 mps 751 mmHg 75%
03:00 +14°C° 0 mm 3 mps 752 mmHg 77%
04:00 +16°C° 0 mm 3 mps 752 mmHg 74%
05:00 +16°C° 0 mm 3 mps 752 mmHg 70%
06:00 +17°C° 0 mm 3 mps 752 mmHg 67%
07:00 +19°C° 0 mm 3 mps 752 mmHg 59%
08:00 +21°C° 0 mm 3 mps 752 mmHg 51%
09:00 +22°C° 0 mm 3 mps 752 mmHg 43%
10:00 +24°C° 0 mm 3 mps 752 mmHg 40%
11:00 +25°C° 0 mm 3 mps 752 mmHg 36%
12:00 +26°C° 0 mm 3 mps 752 mmHg 33%
13:00 +26°C° 0 mm 3 mps 752 mmHg 32%
14:00 +27°C° 0 mm 4 mps 752 mmHg 32%
15:00 +27°C° 0 mm 4 mps 752 mmHg 31%
16:00 +26°C° 0 mm 4 mps 752 mmHg 33%
17:00 +25°C° 0 mm 4 mps 752 mmHg 36%
18:00 +24°C° 0 mm 3 mps 752 mmHg 38%
19:00 +22°C° 0 mm 3 mps 752 mmHg 40%
20:00 +20°C° 0 mm 3 mps 752 mmHg 43%
21:00 +19°C° 0 mm 2 mps 752 mmHg 45%
22:00 +19°C° 0 mm 2 mps 752 mmHg 45%
23:00 +19°C° 0 mm 2 mps 752 mmHg 45%

7 August, Saturday

Time Temperature Precipitation Wind Pressure Humidity
00:00 +19°C° 0 mm 2 mps 752 mmHg 45%
01:00 +19°C° 0 mm 2 mps 752 mmHg 46%
02:00 +19°C° 0 mm 2 mps 753 mmHg 46%
03:00 +18°C° 0 mm 3 mps 753 mmHg 47%
04:00 +18°C° 0 mm 2 mps 753 mmHg 48%
05:00 +18°C° 0 mm 2 mps 753 mmHg 49%
06:00 +18°C° 0 mm 2 mps 754 mmHg 51%
07:00 +18°C° 0 mm 2 mps 754 mmHg 52%
08:00 +20°C° 0 mm 1 mps 754 mmHg 52%
09:00 +20°C° 0 mm 1 mps 754 mmHg 53%
10:00 +20°C° 0 mm 1 mps 754 mmHg 54%
11:00 +20°C° 0 mm 1 mps 754 mmHg 54%
12:00 +20°C° 0 mm 1 mps 754 mmHg 55%
13:00 +21°C° 0 mm 1 mps 754 mmHg 53%
14:00 +22°C° 0 mm 1 mps 754 mmHg 51%
15:00 +22°C° 0 mm 1 mps 754 mmHg 48%
16:00 +23°C° 0 mm 1 mps 754 mmHg 48%
17:00 +23°C° 0 mm 1 mps 754 mmHg 47%
18:00 +23°C° 0 mm 1 mps 754 mmHg 47%
19:00 +22°C° 0 mm 1 mps 754 mmHg 49%
20:00 +21°C° 0 mm 1 mps 754 mmHg 52%
21:00 +20°C° 0 mm 1 mps 754 mmHg 54%
22:00 +20°C° 0 mm 1 mps 754 mmHg 57%
23:00 +19°C° 0 mm 1 mps 754 mmHg 59%

8 August, Sunday

Time Temperature Precipitation Wind Pressure Humidity
00:00 +19°C° 0 mm 1 mps 754 mmHg 62%
01:00 +18°C° 0 mm 1 mps 754 mmHg 65%
02:00 +17°C° 0 mm 2 mps 754 mmHg 69%
03:00 +16°C° 0 mm 2 mps 755 mmHg 72%
04:00 +17°C° 0 mm 2 mps 755 mmHg 69%
05:00 +18°C° 0 mm 2 mps 755 mmHg 66%
06:00 +18°C° 0 mm 2 mps 755 mmHg 62%
07:00 +20°C° 0 mm 2 mps 755 mmHg 57%
08:00 +23°C° 0 mm 2 mps 755 mmHg 51%
09:00 +25°C° 0 mm 2 mps 755 mmHg 45%
10:00 +26°C° 0 mm 2 mps 755 mmHg 43%
11:00 +27°C° 0 mm 1 mps 755 mmHg 40%
12:00 +29°C° 0 mm 1 mps 755 mmHg 37%
13:00 +29°C° 0 mm 1 mps 754 mmHg 37%
14:00 +29°C° 0 mm 1 mps 754 mmHg 36%
15:00 +30°C° 0 mm 2 mps 754 mmHg 36%
16:00 +29°C° 0 mm 2 mps 754 mmHg 38%
17:00 +29°C° 0 mm 1 mps 754 mmHg 41%
18:00 +28°C° 0 mm 1 mps 754 mmHg 44%
19:00 +26°C° 0 mm 2 mps 754 mmHg 48%
20:00 +24°C° 0 mm 2 mps 754 mmHg 52%
21:00 +21°C° 0 mm 2 mps 754 mmHg 56%
22:00 +21°C° 0 mm 3 mps 754 mmHg 57%
23:00 +21°C° 0 mm 3 mps 754 mmHg 58%

9 August, Monday

Time Temperature Precipitation Wind Pressure Humidity
00:00 +20°C° 0 mm 3 mps 754 mmHg 59%
01:00 +20°C° 0 mm 3 mps 754 mmHg 60%
02:00 +20°C° 0 mm 3 mps 754 mmHg 61%
03:00 +19°C° 0 mm 3 mps 754 mmHg 62%
04:00 +20°C° 0 mm 3 mps 753 mmHg 60%
05:00 +21°C° 0 mm 3 mps 753 mmHg 57%
06:00 +22°C° 0 mm 3 mps 753 mmHg 55%
07:00 +25°C° 0 mm 3 mps 753 mmHg 48%
08:00 +27°C° 0 mm 3 mps 753 mmHg 42%
09:00 +30°C° 0 mm 4 mps 753 mmHg 35%
10:00 +32°C° 0 mm 4 mps 753 mmHg 34%
11:00 +33°C° 0 mm 4 mps 753 mmHg 32%
12:00 +34°C° 0 mm 5 mps 753 mmHg 30%
13:00 +35°C° 0 mm 5 mps 753 mmHg 30%
14:00 +35°C° 0 mm 5 mps 753 mmHg 29%
15:00 +35°C° 0 mm 5 mps 753 mmHg 29%
16:00 +34°C° 0 mm 5 mps 753 mmHg 33%
17:00 +33°C° 0 mm 4 mps 753 mmHg 36%
18:00 +32°C° 0 mm 4 mps 753 mmHg 40%
19:00 +29°C° 0 mm 3 mps 753 mmHg 45%
20:00 +27°C° 0 mm 3 mps 753 mmHg 51%
21:00 +25°C° 0 mm 3 mps 753 mmHg 56%
22:00 +22°C° 0 mm 3 mps 753 mmHg 58%
23:00 +21°C° 0 mm 3 mps 754 mmHg 60%
Show more

We Need Your Consent

Meteoprog and our Service Providers may store and access personal data such as cookies, device identifiers or other similar technologies on your device and process such data to personalise content and ads, as well as provide social media features and to analyse the traffic.

  • Store and/or access information on your device

    Cookies, device identifiers or other information can be stored or accessed on your device for the purposes indicated above.

  • Personalised ads and content, ad and content measurement, audience insights, and products development

    Ads and content can be personalised based on a profile. More data can be added to better personalise ads and content. Ad and content performance can be measured. Insights about the audience who saw the ads and content can be derived. Such data can be used to develop or improve user’s experience, systems and software.

By clicking ‘I Agree’ you will allow the use of indicated cookies, device identifiers, web beacons or other similar technologies. Your settings can be changed in the browser on your device.

For certain purposes, legitimate interests may be relied on, rather than consent. You can read more about this in our Privacy and Cookie Policy.